Location: Canesano
(44.5667°N, 10.1333°E)
Time: 18:41:36
(UTC+00:00)

Daily predictions for brighter satellites

Satellite Brightness Start Highest point End
(mag) Time Altitude Azimuth Time Altitude Azimuth Time Altitude Azimuth
MOS 1 4.4 19:02:28 10° SSE 19:08:01 62° ENE 19:13:37 10° N
Lacrosse 5 rocket 4.2 19:09:30 10° W 19:11:06 12° WSW 19:12:43 10° SW
MOS 1-B Rocket 4.4 19:05:24 10° NNE 19:13:05 70° ESE 19:19:31 10° S
Meteor 2-15 Rocket 4.5 19:12:24 10° S 19:18:29 90° E 19:24:36 10° N
SJ-6B 3.1 19:15:18 10° S 19:19:08 71° WSW 19:23:05 10° NNW
SL-08 ROCKET BODY 4.3 19:19:45 10° N 19:25:41 76° E 19:31:31 10° SSE
USA 290 3.6 19:25:18 10° N 19:28:03 25° ENE 19:30:10 14° ESE
Cosmos 1842 Rocket 4.5 19:24:17 10° SSW 19:28:39 54° WNW 19:33:05 10° N
Ariane Rocket 3.0 19:23:46 10° SSE 19:28:49 87° ENE 19:33:55 10° NNW
Cosmos 921 Rocket 4.5 19:25:07 10° NW 19:29:02 35° W 19:32:50 10° SSW
Cosmos 2263 Rocket 4.4 19:27:08 10° WSW 19:32:01 30° NW 19:36:55 10° N
FALCON 9 DEB 3.2 19:30:27 10° WNW 19:33:27 55° SW 19:35:41 16° SE
IRIS 4.3 19:31:20 10° WSW 19:33:36 39° S 19:35:32 16° ESE
Cosmos 1606 2.7 19:30:46 10° S 19:34:30 83° W 19:38:19 10° N
CZ-2C R/B 4.5 19:31:32 10° NE 19:35:31 31° E 19:39:19 11° SSE
Cosmos 1844 Rocket 2.6 19:31:02 10° SSW 19:36:33 73° ESE 19:42:08 10° NNE
SPOT 1/Viking Rocket 4.3 19:36:09 14° SE 19:40:10 36° ENE 19:44:54 10° N
SL-4 R/B 2.4 19:37:42 10° WNW 19:42:03 64° SW 19:45:35 17° SE
Cosmos 1805 Rocket 3.5 19:39:05 10° N 19:43:27 76° E 19:47:34 11° SSE
Cosmos 1386 Rocket 4.4 19:39:13 10° N 19:45:15 72° E 19:51:19 10° SSE
Cosmos 1354 Rocket 4.5 19:40:26 10° S 19:45:15 40° ESE 19:50:07 10° NE
X-37B 0.6 19:42:08 10° W 19:45:20 80° N 19:47:53 15° E
ARIANE 5 R/B 3.9 19:43:08 15° ESE 19:45:37 24° ENE 19:49:08 10° NNE
Cosmos 1633 Rocket 3.9 19:47:50 10° N 19:51:52 35° ENE 19:54:17 20° SE
Cosmos 1745 Rocket 4.0 19:46:15 10° N 19:52:30 83° E 19:58:38 10° S
SPOT 3 Rocket 3.5 19:49:01 13° SSE 19:53:36 76° ENE 19:58:46 10° N
Cosmos 1709 Rocket 4.2 19:49:19 10° N 19:55:18 52° ENE 19:59:47 18° SSE
Resurs 1-3 4.3 19:51:35 10° S 19:55:52 54° W 20:00:11 10° NNW
Landsat 7 3.8 19:52:36 16° SSE 19:56:24 70° ENE 20:01:09 10° N
Cosmos 1844 3.7 19:51:02 10° SSW 19:56:46 85° ESE 20:02:29 10° NNE
Cosmos 1812 4.5 19:56:30 16° E 19:56:53 16° E 19:59:17 10° NE
Cosmos 968 Rocket 4.0 19:52:21 10° SSW 19:57:34 65° WNW 20:02:47 10° NNE
BREEZE-M DEB (TANK) 4.0 19:55:02 10° WNW 19:59:19 82° SSW 20:06:54 14° ESE
ATLAS 5 CENTAUR R/B 2.6 19:55:38 10° NNW 20:01:10 62° NE 20:05:41 20° SE
NOSS 3-3 (A) 4.2 19:56:22 10° S 20:01:37 41° ESE 20:07:29 10° NE
NOSS 3-3 (C) 4.2 19:56:29 10° S 20:01:44 40° ESE 20:07:35 10° NE
Cosmos 1328 Rocket 4.3 19:59:49 21° SE 20:02:04 35° E 20:06:06 10° NNE
Cosmos 1486 Rocket 4.4 19:59:47 10° SSW 20:05:05 70° WNW 20:10:26 10° NNE
IGS 5A 3.5 20:04:26 17° S 20:07:36 79° WSW 20:11:47 10° NNW
Meteor 1-26 Rocket 4.3 20:02:16 11° S 20:07:44 59° E 20:13:12 10° NNE
CARTOSAT-1 4.3 20:07:02 24° ESE 20:09:00 37° ENE 20:12:58 10° N
Cosmos 2315 Rocket 4.1 20:04:39 12° S 20:10:22 59° E 20:16:39 10° NNE
Cosmos 1833 Rocket 3.8 20:05:48 10° N 20:10:47 31° NE 20:14:00 18° ESE
CRYOSAT 2 4.5 20:07:53 21° SSE 20:11:04 61° E 20:15:54 10° N
S3M 4.2 20:04:45 10° SSW 20:11:08 76° W 20:17:31 10° N
BREEZE-M R/B 2.1 20:10:35 10° WSW 20:13:08 61° NNW 20:15:12 13° ENE
Cosmos 1666 4.4 20:14:13 10° NNE 20:16:53 18° ENE 20:17:20 18° E
Cosmos 1666 Rocket 3.5 20:13:08 10° N 20:17:33 79° E 20:19:57 26° SSE
Meteor 2-17 Rocket 4.4 20:14:27 10° N 20:20:40 85° E 20:25:05 20° S
Cosmos 1933 3.8 20:17:37 10° SSW 20:21:37 60° W 20:25:37 10° N
USA 245 2.2 20:23:41 60° NNE 20:23:41 60° NNE 20:25:41 10° N
Cosmos 783 Rocket 4.5 20:21:37 10° NNW 20:26:54 74° ENE 20:29:28 30° SSE
Cosmos 1242 Rocket 3.1 20:24:03 13° SSW 20:27:12 57° WNW 20:30:44 10° N
BREEZE M DEB (TANK) 3.0 20:28:50 10° WNW 20:33:06 38° N 20:34:07 25° NE
Resurs 01 Rocket 2.9 20:29:42 13° SSW 20:33:18 37° W 20:37:27 10° NNW
Cosmos 773 Rocket 4.1 20:29:24 10° NNW 20:34:43 68° ENE 20:37:01 34° SE
Spot 2 Rocket 3.4 20:34:12 30° SSE 20:36:44 85° ENE 20:41:49 10° NNW
SJ 16-02 2.5 20:38:19 26° E 20:38:19 26° E 20:41:39 10° NE
OE (NEXTSAT) 4.5 20:35:32 10° WNW 20:39:01 71° N 20:39:58 44° ENE
Sich 1 4.4 20:35:47 10° NNW 20:39:43 35° W 20:43:01 14° SSW
DELTA 2 R/B (1) 4.2 20:35:21 10° W 20:40:27 38° SSW 20:41:51 32° SSE
COSMOS 2406 3.6 20:35:51 10° NNW 20:41:22 50° ENE 20:43:43 31° ESE
Meteor 2-6 Rocket 4.3 20:41:14 34° SSE 20:43:11 51° E 20:48:30 10° NNE
Cosmos 2082 Rocket 3.4 20:39:07 10° N 20:44:00 29° NE 20:46:29 21° E
USA 306 4.4 20:40:30 10° NW 20:44:19 31° NNE 20:47:01 16° ENE
Cosmos 1782 3.3 20:43:16 22° SSW 20:45:42 59° W 20:49:39 10° N
Cosmos 1500 3.0 20:42:45 10° N 20:46:32 83° E 20:47:10 60° SSE
CZ-4C R/B 3.2 20:39:28 10° NNW 20:46:38 66° NE 20:51:18 28° ESE
ERS-1 Rocket 2.9 20:50:52 41° SSE 20:52:40 79° ENE 20:57:43 10° NNW
SPOT 5 2.9 20:52:52 41° SSE 20:54:38 81° ENE 20:59:54 10° NNW
H-2A R/B 3.6 20:53:39 10° NNE 20:57:45 50° E 20:57:49 50° ESE
Cosmos 1271 Rocket 3.4 21:00:22 42° ENE 21:00:22 42° ENE 21:03:49 10° NNE
Meteor 1-11 Rocket 4.3 20:55:13 10° N 21:00:58 46° ENE 21:02:44 36° ESE
Cosmos 1151 Rocket 4.1 20:58:02 16° SW 21:01:11 42° WNW 21:05:23 10° N
Cosmos 1777 Rocket 3.9 20:58:39 28° SSW 21:01:27 87° ESE 21:06:41 10° NNE
USA 290 4.5 21:00:03 10° WNW 21:02:18 18° WSW 21:02:58 17° WSW
Terra 1.8 21:02:23 51° SE 21:03:28 70° ENE 21:08:14 10° N
Cosmos 2278 Rocket 2.1 21:05:44 36° S 21:08:01 70° ESE 21:13:41 10° NNE
USA 307 4.1 21:05:47 10° NW 21:09:47 37° NNE 21:11:25 27° ENE
Cosmos 1515 Rocket 3.9 21:17:35 42° SW 21:18:51 62° W 21:23:14 10° N
Cosmos 2084 3.9 21:17:53 15° SW 21:21:13 57° NW 21:25:25 10° NNE
ARIANE 5 R/B 3.8 21:20:40 28° SW 21:21:56 34° W 21:25:54 10° NNW
X-37B 2.7 21:18:49 10° W 21:20:09 22° W 21:20:09 22° W
USA 308 3.8 21:19:14 10° NW 21:23:20 43° NNE 21:24:24 36° ENE
Cosmos 1869 Rocket 3.8 21:19:45 10° N 21:23:54 51° ENE 21:23:54 51° ENE
Cosmos 1536 3.6 21:20:20 10° N 21:23:48 41° ENE 21:23:48 41° ENE
Meteor 1-10 Rocket 4.1 21:22:59 47° S 21:24:43 89° E 21:30:23 10° N
Cosmos 1943 Rocket 3.9 21:30:25 18° E 21:30:25 18° E 21:32:58 10° NE
Cosmos 2154 Rocket 4.0 21:25:03 10° N 21:31:25 72° E 21:33:02 51° SSE
Cosmos 1812 3.9 21:31:31 33° WSW 21:32:19 36° WNW 21:35:56 10° N
ALOS 2 4.5 21:38:41 19° ENE 21:38:53 19° ENE 21:41:58 10° NNE
Cosmos 2184 Rocket 4.1 21:33:11 10° NNW 21:39:23 70° W 21:41:19 45° SSW
Cosmos 990 Rocket 4.5 21:40:01 44° E 21:40:01 44° E 21:44:31 10° NNE
NOSS 3-4 (A) 3.9 21:37:20 10° NW 21:44:21 77° NE 21:47:03 44° SE
NOSS 3-4 (C) 3.9 21:37:26 10° NW 21:44:27 77° NE 21:47:10 44° SE
ATLAS 5 CENTAUR R/B 3.7 21:40:43 10° WNW 21:45:41 28° WSW 21:47:13 26° SW
Cosmos 2074 Rocket 4.3 21:41:09 10° NNW 21:47:19 59° W 21:49:23 40° SSW
Cosmos 1666 4.2 21:49:11 10° NNW 21:52:11 30° W 21:52:11 30° W
Cosmos 2112 Rocket 4.4 21:48:01 10° NNW 21:53:15 51° ENE 21:53:50 49° E
Nadezhda 1 Rocket 4.0 21:51:52 49° SSW 21:53:43 80° W 22:00:02 10° N
Cosmos 1833 Rocket 3.2 21:49:30 10° NW 21:54:52 46° WSW 21:55:42 43° SW
Cosmos 1238 Rocket 4.2 21:51:01 10° N 21:57:08 47° ENE 21:57:51 45° E
Cosmos 1743 3.8 21:54:08 10° N 21:56:52 40° NNE 21:56:52 40° NNE
ATLAS 2AS CENTAUR R/B 3.1 21:50:39 10° NNW 21:57:59 59° NE 22:00:32 39° ESE
USA 215 4.1 21:55:02 14° E 22:00:23 45° NNE 22:06:32 10° NW
Cosmos 2297 4.1 22:03:58 48° E 22:03:58 48° E 22:08:57 10° NE
USA 305 3.4 22:01:13 10° NW 22:04:41 57° NW 22:04:41 57° NW
Cosmos 2181 Rocket 4.2 22:07:22 49° ESE 22:07:49 50° E 22:13:43 10° NNE
Cosmos 158 Rocket 4.4 22:11:01 10° NNW 22:15:27 47° W 22:15:27 47° W
SJ 16-02 2.9 22:15:15 27° W 22:16:23 31° WNW 22:20:22 10° N
Cosmos 1733 Rocket 3.7 22:12:34 10° N 22:16:02 50° NNE 22:16:02 50° NNE
Cosmos 2228 Rocket 4.3 22:17:34 34° W 22:17:56 35° WNW 22:22:01 10° N
Meteor 1-27 Rocket 4.3 22:18:37 42° WSW 22:20:07 53° WNW 22:25:54 10° N
Cosmos 1680 Rocket 3.4 22:16:08 10° NNW 22:21:27 82° W 22:21:27 82° W
Cosmos 2341 Rocket 3.9 22:15:47 10° N 22:22:13 89° ENE 22:23:08 68° S
Cosmos 1937 Rocket 3.7 22:24:06 58° ENE 22:24:06 58° ENE 22:28:32 10° NNE
Cosmos 2366 rocket 4.1 22:17:18 10° N 22:23:25 60° E 22:24:07 56° ESE
USA 306 4.0 22:20:20 10° WNW 22:23:05 39° WNW 22:23:05 39° WNW
Cosmos 1818 4.3 22:21:21 10° NNW 22:26:39 45° NE 22:27:40 41° ENE
Cosmos 967 Rocket 4.3 22:27:43 67° ESE 22:27:48 67° ESE 22:34:02 10° NE
Cosmos 2082 Rocket 2.6 22:22:54 10° NW 22:28:18 48° WSW 22:28:19 48° WSW
CZ-4C R/B 3.8 22:28:23 10° NW 22:35:07 36° WSW 22:36:28 34° SW
Meteor 1-19 Rocket 4.0 22:40:49 80° ENE 22:40:49 80° ENE 22:46:03 10° NNE
Cosmos 2218 Rocket 3.8 22:35:09 10° N 22:41:27 83° E 22:42:06 73° SSE
Terra 4.1 22:41:15 14° W 22:41:43 14° W 22:44:08 10° WNW
Cosmos 489 Rocket 4.4 22:42:26 10° NNW 22:48:41 75° ENE 22:49:22 68° ESE
Cosmos 2278 Rocket 4.3 22:48:21 10° W 22:52:40 22° NW 22:57:01 10° N
Cosmos 1862 Rocket 4.4 22:57:00 47° NNW 22:57:00 47° NNW 23:00:20 10° N
Cosmos 1898 Rocket 4.1 22:57:39 46° W 22:58:13 48° WNW 23:03:24 10° N
Nadezhda 3 Rocket 4.4 23:02:11 48° ESE 23:02:36 49° E 23:08:33 10° NNE
Cosmos 2369 Rocket 2.5 23:03:27 56° E 23:03:27 56° E 23:08:24 10° NNE
COBE Rocket 4.1 23:07:04 71° NW 23:07:04 71° NW 23:11:42 10° NNW
RESURS DK-1 4.1 23:06:23 10° N 23:09:53 27° NE 23:09:53 27° NE
Meteor 2-9 Rocket 4.5 23:04:55 10° NNW 23:10:34 58° W 23:10:34 58° W
SL-8 Rocket 4.4 23:04:54 10° NNW 23:10:59 50° W 23:11:34 49° WSW
Cosmos 1943 Rocket 2.3 23:11:54 64° W 23:12:16 66° WNW 23:17:53 10° NNE
Cosmos 1975 4.3 23:09:48 10° NNW 23:12:12 33° NNW 23:12:12 33° NNW
ALOS 2 3.8 23:16:05 36° NW 23:16:05 36° NW 23:19:07 10° NNW
Cosmos 1867 4.4 23:18:57 39° E 23:18:57 39° E 23:23:01 10° NE
SL-08 R/B 4.3 23:12:56 10° N 23:19:10 89° WSW 23:19:37 78° S
Cosmos 1607 4.3 23:19:25 51° ESE 23:19:25 51° ESE 23:25:26 10° NE
DNEPR-1 R/B 4.3 23:19:56 61° W 23:20:25 63° NW 23:25:24 10° NNE
Meteor 2-4 Rocket 3.7 23:20:31 80° W 23:20:37 81° W 23:26:20 10° N
Cosmos 44 4.2 23:16:42 10° NW 23:20:48 44° WNW 23:20:48 44° WNW
Cosmos 2263 4.4 23:22:38 60° E 23:22:38 60° E 23:27:59 10° NNE
Okean 1-7 3.9 23:30:15 47° N 23:30:15 47° N 23:33:21 10° N
ATLAS CENTAUR R/B 3.8 23:32:11 14° ENE 23:32:11 14° ENE 23:32:50 10° ENE
Cosmos 372 Rocket 4.2 23:30:36 59° NW 23:30:36 59° NW 23:35:28 10° NNE
Cosmos 1125 Rocket 4.0 23:35:51 49° E 23:35:51 49° E 23:40:20 10° NNE
SeaSat 1 2.5 23:33:42 10° NNE 23:38:19 73° NNW 23:38:19 73° NNW
Cosmos 1656 Rocket 3.7 23:39:04 69° E 23:39:04 69° E 23:44:12 10° NNE
Cosmos 2242 Rocket 4.4 23:40:22 46° NW 23:40:22 46° NW 23:43:50 10° N
Cosmos 494 Rocket 4.3 23:34:57 10° NNW 23:40:06 59° ENE 23:40:13 59° ENE
USA 215 3.1 23:42:20 66° S 23:43:09 75° SW 23:49:43 10° NW
Cosmos 2239 Rocket 4.3 23:37:53 10° N 23:44:13 89° E 23:44:52 74° S
Cosmos 1833 4.2 23:41:13 10° NNW 23:46:59 74° ENE 23:47:33 68° ESE
ATLAS 2AS CENTAUR R/B 3.6 23:42:15 10° NW 23:47:56 33° WSW 23:47:56 33° WSW
CZ-2D R/B 3.9 23:49:06 10° NE 23:53:07 21° E 23:53:55 20° ESE
